User: anonymous   Login
Location: Ottawa
(45.4170°N, 75.7000°W)
Time: 15:32:36
(UTC-05:00)
Language:

Aureole 3 Rocket - Orbit

View from above orbital plane
View from above orbital plane
View from above satellite
View from above satellite

Ground track
Ground track

The orbit data is extracted from the following two-line orbital elements,

1 12849U 81094B   16043.45300653  .00000798  00000-0  75022-4 0  9990
2 12849  82.4944 183.1992 0904146 294.1177  56.8001 13.49640401675713
Epoch (UTC): 12 February 2016 10:52:19
Eccentricity: 0.0904146
inclination: 82.4944°
perigee height: 400 km
apogee height: 1747 km
right ascension of ascending node: 183.1992°
argument of perigee: 294.1177°
revolutions per day: 13.49640401
mean anomaly at epoch: 56.8001°
orbit number at epoch: 67571

The dashed part of the orbit path shows where the satellite is in the earth's shadow,  

DLR